FW8158 Weather Reports


time (UTC)temp
C
wind
direction
speed
KPH
gust
KPH
rain 1hr
cm
rain 24hr
cm
rain mn
cm
humidity
%
barometer
mb
20260505173006 26 357 8.0 16.1 0.00 0.20 0.20 84 1016.3
20260505172501 27 124 8.0 17.7 0.00 0.20 0.20 82 1016.3
20260505172003 27 65 6.4 17.7 0.00 0.20 0.20 84 1016.4
20260505171458 27 58 8.0 20.9 0.00 0.20 0.20 85 1016.4
20260505171000 26 98 8.0 20.9 0.00 0.20 0.20 85 1016.4
20260505170457 26 96 8.0 17.7 0.00 0.20 0.20 85 1016.5
20260505165957 26 69 6.4 16.1 0.00 0.20 0.20 85 1016.6
20260505165457 26 52 6.4 12.9 0.00 0.20 0.20 87 1016.6
20260505164954 25 35 6.4 19.3 0.00 0.20 0.20 88 1016.6
20260505164456 25 64 6.4 19.3 0.00 0.20 0.20 88 1016.6
20260505163955 25 109 6.4 16.1 0.00 0.20 0.20 88 1016.6
20260505163454 25 127 6.4 16.1 0.00 0.20 0.20 87 1016.6
20260505163215 26 95 6.4 17.7 0.00 0.20 0.20 86 1016.6
20260505162710 26 165 8.0 19.3 0.00 0.20 0.20 86 1016.6
20260505161949 27 78 8.0 19.3 0.00 0.20 0.20 84 1016.6
20260505161450 27 77 8.0 17.7 0.00 0.20 0.20 86 1016.6
20260505160949 26 98 8.0 17.7 0.00 0.20 0.20 85 1016.7
20260505160714 26 68 8.0 17.7 0.00 0.23 0.20 86 1016.7
20260505152949 26 54 9.7 19.3 0.00 0.23 0.20 86 1016.4
20260505152450 26 119 8.0 19.3 0.00 0.23 0.20 85 1016.4
20260505151950 26 103 8.0 17.7 0.00 0.23 0.20 85 1016.4
20260505151448 26 110 6.4 17.7 0.00 0.23 0.20 84 1016.3
20260505150950 26 86 6.4 14.5 0.00 0.23 0.20 84 1016.4
20260505150450 26 105 6.4 16.1 0.00 0.23 0.20 84 1016.5
20260505140441 25 94 6.4 14.5 0.00 0.23 0.20 88 1016.3
20260505124821 25 84 4.8 14.5 0.00 0.23 0.20 89 1015.9
20260505124314 25 119 4.8 14.5 0.00 0.23 0.20 90 1015.9
20260505123809 25 113 4.8 12.9 0.00 0.23 0.20 89 1015.7
20260505123303 25 56 6.4 17.7 0.00 0.23 0.20 90 1015.8
20260505122758 25 87 6.4 17.7 0.00 0.23 0.20 91 1015.7
20260505122251 25 146 4.8 16.1 0.00 0.23 0.20 92 1015.5
20260505121745 24 118 6.4 16.1 0.00 0.23 0.20 92 1015.5
20260505121238 24 116 4.8 14.5 0.00 0.23 0.20 93 1015.5
20260505121214 24 68 4.8 12.9 0.00 0.23 0.20 93 1015.4
20260505120227 24 79 4.8 12.9 0.00 0.23 0.20 93 1015.2
20260505115721 23 94 4.8 11.3 0.00 0.23 0.20 92 1015.1
20260505115215 24 104 4.8 11.3 0.00 0.23 0.20 92 1015.2
20260505114709 24 67 4.8 11.3 0.00 0.23 0.20 92 1015.4
20260505114203 23 91 4.8 11.3 0.03 0.23 0.20 93 1015.3
20260505113657 23 96 4.8 12.9 0.03 0.23 0.20 92 1015.3
20260505113151 23 102 3.2 12.9 0.05 0.23 0.20 92 1015.3
20260505112645 23 94 3.2 9.7 0.05 0.23 0.20 93 1015.2
20260505112138 23 91 3.2 9.7 0.05 0.23 0.20 93 1015.1
20260505111633 23 115 4.8 11.3 0.05 0.23 0.20 93 1015.0
20260505111133 23 91 4.8 11.3 0.05 0.23 0.20 93 1015.1
20260505110633 23 103 4.8 9.7 0.05 0.23 0.20 94 1015.0
20260505110137 23 109 4.8 12.9 0.05 0.23 0.20 94 1015.0
20260505102130 23 67 4.8 16.1 0.00 0.18 0.15 92 1014.6
20260505101630 23 109 4.8 19.3 0.00 0.18 0.15 92 1014.6
20260505101130 23 75 6.4 19.3 0.00 0.18 0.15 92 1014.6
20260505100852 23 113 8.0 17.7 0.00 0.18 0.15 92 1014.5
20260505100134 23 104 8.0 17.7 0.00 0.18 0.15 92 1014.5
20260505095634 23 74 8.0 17.7 0.00 0.18 0.15 92 1014.4
20260505095346 23 94 6.4 19.3 0.00 0.18 0.15 92 1014.3
20260505094847 23 106 6.4 19.3 0.00 0.18 0.15 92 1014.1
20260505094115 23 98 6.4 16.1 0.00 0.20 0.15 92 1014.1
20260505093610 23 68 6.4 22.5 0.00 0.20 0.15 92 1014.3
20260505093103 23 37 6.4 22.5 0.00 0.20 0.15 92 1014.2
20260505092818 23 88 6.4 17.7 0.00 0.20 0.15 92 1014.1
20260505092051 23 120 6.4 17.7 0.00 0.20 0.15 92 1014.0
20260505091546 23 93 6.4 17.7 0.00 0.20 0.15 92 1014.1
20260505091039 23 71 8.0 16.1 0.00 0.20 0.15 92 1014.2
20260505090538 23 73 8.0 16.1 0.00 0.20 0.15 91 1014.0
20260505090037 23 92 8.0 19.3 0.00 0.20 0.15 91 1014.0
20260505085537 23 41 8.0 19.3 0.00 0.20 0.15 91 1014.1
20260505085038 23 94 6.4 17.7 0.00 0.20 0.15 92 1014.1
20260505084537 23 88 6.4 16.1 0.00 0.20 0.15 92 1014.0
20260505084037 23 59 6.4 14.5 0.00 0.20 0.15 92 1014.0
20260505083536 23 78 6.4 14.5 0.00 0.20 0.15 92 1014.0
20260505083036 23 23 6.4 16.1 0.00 0.20 0.15 92 1014.1
20260505082536 23 94 6.4 17.7 0.00 0.20 0.15 92 1014.0
20260505082038 23 98 6.4 17.7 0.00 0.20 0.15 93 1014.0
20260505081536 23 81 4.8 17.7 0.00 0.20 0.15 92 1013.9
20260505081036 23 58 6.4 17.7 0.00 0.20 0.15 92 1013.9
20260505080536 23 87 6.4 16.1 0.03 0.20 0.15 93 1014.0
20260505080037 23 73 8.0 17.7 0.10 0.20 0.15 93 1014.0
20260505075537 23 79 6.4 17.7 0.15 0.20 0.15 93 1013.9
20260505075513 23 52 6.4 17.7 0.15 0.20 0.15 93 1014.1
20260505074532 23 76 6.4 24.1 0.15 0.20 0.15 93 1014.2
20260505074031 23 81 6.4 24.1 0.15 0.20 0.15 93 1014.2
20260505073756 23 58 6.4 17.7 0.15 0.20 0.15 94 1014.3
20260505073033 23 115 6.4 14.5 0.15 0.20 0.15 94 1014.3
20260505072533 23 108 6.4 17.7 0.15 0.20 0.15 94 1014.3
20260505072031 23 94 6.4 17.7 0.15 0.20 0.15 94 1014.2
20260505071532 23 99 6.4 14.5 0.15 0.20 0.15 94 1014.3
20260505071033 23 96 6.4 17.7 0.15 0.20 0.15 93 1014.3
20260505070533 23 106 6.4 17.7 0.13 0.18 0.13 93 1014.4
20260505070032 23 82 4.8 14.5 0.05 0.13 0.08 92 1014.5
20260505065533 23 94 4.8 19.3 0.00 0.13 0.00 91 1014.5
20260505065031 24 109 6.4 19.3 0.00 0.20 0.00 89 1014.6
20260505064531 24 122 6.4 17.7 0.00 0.20 0.00 88 1014.4
20260505064031 24 84 6.4 16.1 0.00 0.20 0.00 88 1014.4
20260505063531 24 53 6.4 17.7 0.00 0.20 0.00 87 1014.5
20260505063031 24 60 6.4 17.7 0.00 0.20 0.00 87 1014.5
20260505062529 24 107 6.4 16.1 0.00 0.20 0.00 88 1014.7
20260505062253 24 73 8.0 17.7 0.00 0.20 0.00 88 1014.9
20260505061530 24 66 8.0 17.7 0.00 0.20 0.00 88 1014.9
20260505061031 24 77 6.4 16.1 0.00 0.20 0.00 88 1015.1
20260505060530 24 53 6.4 16.1 0.00 0.20 0.00 88 1015.1
20260505060259 24 85 4.8 14.5 0.00 0.20 0.00 88 1015.1
20260505055754 24 25 6.4 16.1 0.00 0.20 0.00 88 1015.0
20260505055030 24 108 8.0 19.3 0.00 0.20 0.00 87 1014.9
20260505054531 24 100 6.4 19.3 0.00 0.20 0.00 87 1015.0
20260505054029 24 77 6.4 14.5 0.00 0.20 0.00 87 1015.2
20260505053531 24 110 4.8 16.1 0.00 0.20 0.00 87 1015.3
20260505053029 24 92 6.4 16.1 0.00 0.20 0.00 86 1015.3
20260505052532 24 90 6.4 17.7 0.00 0.20 0.00 87 1015.3
20260505052026 24 129 6.4 17.7 0.00 0.20 0.00 87 1015.4
20260505051527 24 104 6.4 17.7 0.00 0.20 0.00 87 1015.3
20260505051025 24 19 6.4 17.7 0.00 0.20 0.00 87 1015.3
20260505050526 24 51 6.4 14.5 0.00 0.20 0.00 86 1015.4
20260505050247 24 96 6.4 14.5 0.00 0.20 0.00 86 1015.5
20260505041504 23 46 6.4 16.1 0.00 0.20 0.00 87 1015.9
20260505040959 23 117 6.4 17.7 0.00 0.20 0.00 87 1016.0
20260505040453 23 110 6.4 17.7 0.00 0.23 0.00 87 1016.0
20260505035955 23 70 8.0 20.9 0.00 0.25 0.25 86 1015.9
20260505035454 23 110 6.4 20.9 0.00 0.28 0.25 86 1015.9
20260505034953 23 60 6.4 17.7 0.00 0.28 0.25 86 1015.9
20260505034452 23 106 6.4 17.7 0.00 0.28 0.25 86 1015.9
20260505033952 23 86 4.8 12.9 0.00 0.28 0.25 86 1015.9
20260505033938 23 60 6.4 19.3 0.00 0.28 0.25 86 1015.8
20260505032954 24 53 8.0 19.3 0.00 0.28 0.25 86 1015.9
20260505032452 24 58 8.0 19.3 0.00 0.28 0.25 86 1015.9
20260505031952 24 71 8.0 19.3 0.00 0.28 0.25 85 1015.8
20260505031452 24 120 8.0 19.3 0.00 0.28 0.25 86 1015.6
20260505030954 24 27 8.0 17.7 0.00 0.28 0.25 86 1015.8
20260505030452 24 84 6.4 17.7 0.00 0.30 0.25 86 1015.7
20260505025954 24 102 8.0 25.7 0.00 0.30 0.25 86 1015.6
20260505025450 24 128 8.0 25.7 0.00 0.30 0.25 86 1015.7
20260505025210 24 65 8.0 20.9 0.00 0.33 0.25 86 1015.9
20260505024448 24 61 8.0 19.3 0.00 0.38 0.25 86 1015.9
20260505023947 24 101 9.7 19.3 0.00 0.41 0.25 87 1015.9
20260505023935 24 83 8.0 19.3 0.00 0.46 0.25 86 1015.7
20260505022951 24 66 8.0 17.7 0.00 0.53 0.25 86 1015.8
20260505022446 24 103 8.0 17.7 0.00 0.64 0.25 86 1015.9
20260505021947 24 136 6.4 20.9 0.00 0.64 0.25 86 1015.8
20260505021446 24 86 6.4 20.9 0.00 0.64 0.25 86 1015.8
20260505020947 24 101 6.4 19.3 0.00 0.64 0.25 86 1015.6
20260505020446 24 120 4.8 16.1 0.00 0.64 0.25 86 1015.7
20260505015946 24 88 6.4 19.3 0.00 0.64 0.25 86 1015.9
20260505015446 24 83 6.4 19.3 0.00 0.64 0.25 87 1016.1
20260505014948 24 56 6.4 17.7 0.00 0.64 0.25 87 1016.1
20260505014447 24 350 6.4 17.7 0.00 0.64 0.25 87 1015.9
20260505013946 24 101 6.4 17.7 0.00 0.64 0.25 86 1015.7
20260505013446 24 80 6.4 19.3 0.00 0.64 0.25 86 1015.7
20260505012946 24 79 6.4 20.9 0.00 0.64 0.25 86 1015.7
20260505012446 24 86 6.4 20.9 0.00 0.64 0.25 85 1015.5
20260505012209 24 99 6.4 16.1 0.00 0.64 0.25 85 1015.5
20260505011447 24 96 6.4 16.1 0.00 0.64 0.25 85 1015.4
20260505010946 24 93 6.4 20.9 0.00 0.64 0.25 85 1015.4
20260505010446 24 122 6.4 20.9 0.00 0.64 0.25 85 1015.4
20260505005947 24 87 6.4 14.5 0.00 0.66 0.25 85 1015.3
20260505005446 24 73 6.4 16.1 0.00 0.66 0.25 85 1015.2
20260505004945 24 97 8.0 20.9 0.00 0.66 0.25 85 1015.2
20260505004447 24 82 8.0 20.9 0.00 0.66 0.25 85 1015.4
20260505003946 24 149 8.0 19.3 0.00 0.71 0.25 85 1015.2
20260505003447 24 98 8.0 19.3 0.00 0.79 0.25 84 1015.1
20260505002946 24 104 6.4 16.1 0.00 0.81 0.25 84 1015.1
20260505002446 24 99 8.0 20.9 0.00 0.84 0.25 83 1015.1
20260505001947 24 130 8.0 20.9 0.00 0.86 0.25 83 1015.2
20260505001445 24 98 6.4 19.3 0.00 0.89 0.25 84 1015.3
20260505000945 24 121 8.0 19.3 0.00 0.91 0.25 84 1015.1
20260505000445 24 91 8.0 14.5 0.00 0.97 0.25 84 1015.0
20260504235946 24 118 6.4 20.9 0.00 1.09 0.25 83 1015.1
20260504235446 24 105 6.4 20.9 0.00 1.24 0.25 83 1015.0
20260504234949 24 9 6.4 20.9 0.00 1.35 0.25 82 1015.0
20260504234446 24 100 8.0 20.9 0.00 1.40 0.25 83 1014.9
20260504233944 24 60 8.0 20.9 0.00 1.45 0.25 82 1014.9
20260504233443 24 84 6.4 17.7 0.00 1.50 0.25 82 1014.9
20260504232943 24 111 4.8 17.7 0.00 1.50 0.25 82 1014.9
20260504232441 24 59 6.4 17.7 0.00 1.50 0.25 83 1015.1
20260504231937 24 101 8.0 24.1 0.00 1.50 0.25 83 1015.0
20260504231438 24 61 8.0 24.1 0.00 1.50 0.25 82 1014.8
20260504230937 24 69 6.4 20.9 0.00 1.50 0.25 82 1014.7
20260504230919 24 51 6.4 19.3 0.00 1.50 0.25 82 1014.7
20260504225936 24 78 6.4 14.5 0.00 1.50 0.25 83 1014.7
20260504225435 24 101 8.0 17.7 0.00 1.50 0.25 81 1014.7
20260504224936 24 51 6.4 17.7 0.00 1.50 0.25 81 1014.7
20260504224430 24 93 6.4 16.1 0.00 1.50 0.25 83 1014.6
20260504223924 24 98 6.4 16.1 0.00 1.50 0.25 82 1014.6
20260504223418 24 49 6.4 19.3 0.00 1.50 0.25 82 1014.7
20260504222912 24 108 8.0 20.9 0.00 1.50 0.25 83 1014.9
20260504222406 24 53 8.0 20.9 0.00 1.50 0.25 82 1014.9
20260504221900 25 90 8.0 17.7 0.00 1.50 0.25 82 1014.9
20260504221354 25 101 6.4 20.9 0.00 1.50 0.25 82 1015.0
20260504221115 25 108 8.0 20.9 0.00 1.50 0.25 81 1015.0
20260504220343 25 84 8.0 19.3 0.00 1.50 0.25 79 1015.0
20260504215837 25 88 8.0 19.3 0.00 1.50 0.25 79 1014.8
20260504215331 25 79 6.4 19.3 0.00 1.50 0.25 79 1014.7
20260504215052 25 72 8.0 19.3 0.00 1.50 0.25 78 1014.6
20260504214318 25 86 8.0 17.7 0.00 1.50 0.25 79 1014.7
20260504213812 25 100 9.7 19.3 0.00 1.50 0.25 80 1014.6
20260504213306 25 63 9.7 19.3 0.00 1.50 0.25 80 1014.6
20260504212800 25 110 8.0 19.3 0.00 1.50 0.25 81 1014.6
20260504212254 25 83 8.0 20.9 0.00 1.50 0.25 80 1014.7
20260504211748 25 82 8.0 20.9 0.00 1.50 0.25 82 1014.8
20260504211242 25 93 9.7 20.9 0.00 1.50 0.25 82 1014.9
20260504210736 25 68 8.0 20.9 0.00 1.50 0.25 82 1014.9
20260504210230 25 86 8.0 24.1 0.00 1.50 0.25 82 1015.0
20260504205724 25 59 8.0 24.1 0.00 1.52 0.25 81 1014.9
20260504205445 25 77 6.4 19.3 0.00 1.55 0.25 81 1015.1
20260504204712 25 129 8.0 24.1 0.00 1.57 0.25 82 1015.1
20260504204206 25 72 8.0 24.1 0.00 1.57 0.25 80 1015.2
20260504203927 25 54 8.0 25.7 0.00 1.57 0.25 80 1015.2
20260504203154 25 77 9.7 25.7 0.00 1.60 0.25 80 1015.2
20260504202648 26 60 8.0 19.3 0.00 1.60 0.25 79 1015.2
20260504202412 26 82 8.0 19.3 0.00 1.60 0.25 79 1015.2
20260504201900 26 61 8.0 22.5 0.00 1.60 0.25 79 1015.2
20260504201130 26 110 8.0 22.5 0.00 1.60 0.25 78 1015.2
20260504200624 26 68 8.0 17.7 0.00 1.60 0.25 78 1015.2
20260504200119 26 129 8.0 24.1 0.00 1.60 0.25 80 1015.3
20260504195612 26 79 8.0 25.7 0.00 1.60 0.25 80 1015.4
20260504195106 26 95 9.7 25.7 0.00 1.60 0.25 79 1015.5
20260504194600 25 99 9.7 20.9 0.00 1.60 0.25 80 1015.3
20260504194317 26 98 9.7 20.9 0.00 1.60 0.25 80 1015.4
20260504193821 26 75 9.7 20.9 0.00 1.60 0.25 81 1015.6
20260504193042 26 99 8.0 20.9 0.00 1.60 0.25 81 1015.6
20260504192537 26 127 9.7 22.5 0.00 1.60 0.25 80 1015.6
20260504192255 26 58 9.7 22.5 0.00 1.60 0.25 80 1015.6
20260504191524 26 113 8.0 20.9 0.00 1.60 0.25 80 1015.7
20260504191018 26 113 9.7 20.9 0.00 1.63 0.25 81 1015.7
20260504190513 26 94 9.7 20.9 0.00 1.63 0.25 80 1015.8
20260504190006 26 147 9.7 25.7 0.00 1.65 0.25 81 1015.7
20260504185500 26 70 9.7 22.5 0.00 1.65 0.25 81 1015.7
20260504184954 26 131 8.0 19.3 0.00 1.68 0.25 83 1015.8
20260504184449 25 79 9.7 22.5 0.00 1.68 0.25 81 1015.7
20260504183943 25 114 11.3 22.5 0.00 1.68 0.25 82 1015.7
20260504183436 25 91 11.3 27.4 0.00 1.68 0.25 83 1015.9
20260504183157 25 99 9.7 27.4 0.00 1.68 0.25 83 1016.0
20260504182424 25 94 9.7 25.7 0.00 1.70 0.25 84 1016.1
20260504182143 24 103 11.3 25.7 0.00 1.73 0.25 84 1016.1
20260504181639 24 80 11.3 20.9 0.00 1.83 0.25 84 1016.0
20260504181355 24 150 11.3 22.5 0.00 1.85 0.25 84 1016.1
20260504180407 24 97 9.7 22.5 0.00 1.85 0.25 84 1016.2
20260504175907 25 60 9.7 24.1 0.00 1.85 0.25 85 1016.2
20260504175409 25 70 9.7 24.1 0.00 1.88 0.25 84 1016.2
20260504174907 25 79 9.7 30.6 0.00 1.88 0.25 84 1016.1
20260504174406 25 139 9.7 30.6 0.00 1.88 0.25 84 1016.3
20260504173907 25 101 9.7 24.1 0.00 1.88 0.25 84 1016.2